Preview of NWS' New Version of Forecast
This preview is not operational and should not be used for support decisions.

Regional Weather Roundup (RWR)

Issued by National Weather Service (NWS)

                            
000
ASUS42 KTBW 211717
RWRFL 
FLORIDA REGIONAL WEATHER ROUNDUP
NATIONAL WEATHER SERVICE TAMPA BAY RUSKIN FL
1200 PM EST THU FEB 21 2019

NOTE: "FAIR" INDICATES FEW OR NO CLOUDS BELOW 12,000 FEET WITH NO
SIGNIFICANT WEATHER AND/OR OBSTRUCTIONS TO VISIBILITY.

FLZ001>010-012>015-112-114-115-211800-
PANHANDLE FLORIDA
  
CITY           SKY/WX    TMP DP  RH WIND       PRES   REMARKS
PENSACOLA      FOG       70  68  93 SE8       30.08S VSB 3/4          
PENSACOLA NAS  CLOUDY    70  70 100 SE10      30.07F FOG              
MILTON NAS     PTSUNNY   72  72 100 S12       30.08                   
CRESTVIEW      CLOUDY    72  70  93 VRB3      30.10S                  
DUKE FIELD     FOG       72  72 100 S8        30.09S VSB 1            
VALPARAISO     FOG       68  68 100 SE8       30.08F VSB 1/4          
MARY ESTHER    CLOUDY    70  68  94 SE12      30.08  FOG              
PANAMA CITY    FOG       70  69  97 SE9       30.10F VSB 1            
TYNDALL AFB    CLOUDY    73  70  88 S15       30.10S                  
APALACHICOLA   CLOUDY    72  67  84 SE13      30.12S                  

STATION/POSITION SKY/WX   TEMP    WIND        PRES    WAVE   SWELL
                          AIR SEA DIR/SP/G            HT/PER HT/PER
                          (F)     (DEG/KT/KT) (MB)    (FT/S) (FT/S)
30.1N   87.6W              66      70/  8/  8   N/A
29.2N   88.2W                     130/  8/ 12 1017.6F   4/ 7   3/ 7
PANAMA CITY BEAC           67 64  120/ 12/ 12 1019.8S
TOWER C                    66     140/ 16/ 17 1019.5F

$$
FLZ011-016>038-118-127-128-134-139-239-211800-
NORTH FLORIDA
  
CITY           SKY/WX    TMP DP  RH WIND       PRES   REMARKS
MARIANNA       CLOUDY    76  70  82 S12       30.10S                  
TALLAHASSEE    PTSUNNY   79  69  71 S18       30.12F                  
PERRY          PTSUNNY   83  66  56 S12       30.13F                  
LIVE OAK       MOSUNNY   82  68  61 S8G15     30.12F                  
CROSS CITY     PTSUNNY   83  67  57 S10       30.13F                  
LAKE CITY      PTSUNNY   81  64  57 S13G20    30.14F                  
GAINESVILLE    FAIR      83  66  56 S6        30.17F                  
WILLISTON        N/A    N/A N/A N/A MISG        N/A                   
PALATKA        PTSUNNY  N/A N/A N/A SW5       30.16F                  
MAYPORT NAS    FAIR      81  68  64 S9        30.15F                  
JACKSONVILLE   FAIR      82  68  62 S10       30.13F                  
JAX NAS        FAIR      79  69  71 S10       30.16F                  
JAX CECIL      MOSUNNY   86  66  51 SW9       30.15F                  
FERNANDINA BEA FAIR      79  69  71 S8        30.15F                  
ST AUGUSTINE   PTSUNNY   71  67  87 E6        30.17F                  
PALM COAST     PTSUNNY   81  68  65 SW8       30.16F                  

STATION/POSITION SKY/WX   TEMP    WIND        PRES    WAVE   SWELL
                          AIR SEA DIR/SP/G            HT/PER HT/PER
                          (F)     (DEG/KT/KT) (MB)    (FT/S) (FT/S)
SHELL POINT      NOT AVBL
KEATON BEACH               74     160/ 14/ 16 1020.5F
CEDAR KEY                  72     130/  3/  4 1021.0F
FERNANDINA                 78 60  170/  6/ 11 1021.8F
30.7N   81.3W                 61                N/A     3/ 8
MAYPORT                    77 60  230/  7/  9 1021.3F
31.4N   80.9W              63 60  150/  4/  6 1021.4F   4/ 9   3/ 9
ST AUGUSTINE               65 63  110/  2/  2 1021.8F

$$
FLZ040-043>046-052-053-057-058-063-144-211800-
INTERIOR CENTRAL FLORIDA
  
CITY           SKY/WX    TMP DP  RH WIND       PRES   REMARKS
OCALA          FAIR      83  64  52 VRB5G16   30.15F                  
LEESBURG       FAIR      80  69  69 S6        30.16F                  
SANFORD        PTSUNNY   80  71  74 SE5       30.16F                  
ORLANDO EXEC   FAIR      81  68  64 SW10      30.15F                  
ORLANDO INTL   PTSUNNY   79  68  69 S5        30.15F                  
KISSIMMEE      CLOUDY    80  69  69 S13       30.16F                  
WINTER HAVEN   LGT RAIN  74  70  87 S3        30.17F                  
LAKELAND       LGT RAIN  79  68  69 S9        30.16F                  
BARTOW         PTSUNNY   75  73  94 E7        30.15F                  
SEBRING        FAIR      82  70  67 SE10      30.15F                  
OKEECHOBEE     FAIR      81  68  65 S9        30.15F                  

$$
FLZ041-047-054-059-064-141-147-211800-
EAST CENTRAL FLORIDA
  
CITY           SKY/WX    TMP DP  RH WIND       PRES   REMARKS
ORMOND BEACH   PTSUNNY   79  72  78 S12       30.17F FOG              
DAYTONA BEACH  LGT RAIN  76  71  85 SE6       30.17F                  
DELAND         CLOUDY    79  68  69 SE12      30.16F                  
NEW SMYRNA BEA PTSUNNY   73  68  83 E9        30.19F                  
JFK SPACE CTR  FAIR      81  71  70 S12G20    30.17F                  
TITUSVILLE     PTSUNNY   84  70  61 SE12      30.18F                  
CAPE CANAVERAL FAIR      81  71  70 SE10      30.15F                  
PATRICK AFB    FAIR      76  70  83 E8        30.16F                  
MELBOURNE      PTSUNNY   82  68  62 SE15G21   30.16F                  
VERO BEACH     FAIR      82  68  62 SE15      30.16F                  
FT PIERCE      PTSUNNY   82  67  60 SE18      30.16F                  
STUART         PTSUNNY   82  68  61 SE14G23   30.17F                  

STATION/POSITION SKY/WX   TEMP    WIND        PRES    WAVE   SWELL
                          AIR SEA DIR/SP/G            HT/PER HT/PER
                          (F)     (DEG/KT/KT) (MB)    (FT/S) (FT/S)
28.5N   80.2W              72     140/  4/  4 1022.2
28.9N   78.5W              76 78  150/ 16/ 19 1023.1F   6/ 8   3/ 8
TRIDENT PIER               76 69  120/  6/ 11 1022.9F
28.4N   80.5W                 67                N/A     3/ 8

$$
FLZ050-056-061-142-242-148-248-149-249-151-251-155-255-
160-260-211800-
WEST CENTRAL FLORIDA
  
CITY           SKY/WX    TMP DP  RH WIND       PRES   REMARKS
CRYSTAL RIVER  FAIR      82  63  51 SE7       30.14F                  
INVERNESS      FAIR      82  70  65 CALM      30.14F                  
BROOKSVILLE    CLOUDY    80  67  64 SE8       30.14F                  
CLEARWATER AIR FAIR      81  66  61 SE9       30.13F                  
ST PETE CLEARW FAIR      81  68  64 S7        30.13F                  
TAMPA INTL     FAIR      82  69  64 VRB7      30.14F                  
TAMPA EXEC     FAIR      81  68  65 S6        30.14F                  
PLANT CITY     PTSUNNY   82  68  61 S8        30.16F                  
MACDILL AFB    FAIR      81  69  67 S6        30.13F                  
PETER O KNIGHT CLOUDY    81  72  74 SE3       30.14F                  
ST PETERSBURG  FAIR      78  72  81 NE5       30.12F                  
SARASOTA       FAIR      82  71  69 S15       30.11F                  
VENICE         FAIR      82  73  74 S15       30.14F                  

STATION/POSITION SKY/WX   TEMP    WIND        PRES    WAVE   SWELL
                          AIR SEA DIR/SP/G            HT/PER HT/PER
                          (F)     (DEG/KT/KT) (MB)    (FT/S) (FT/S)
27.3N   84.2W                 72                N/A     3/ 6
CLEARWATER BEACH           79 71  140/  7/ 12 1020.3F
MIDDLE TAMPA BAY           79     250/  3/  5 1020.7F
VENICE           NOT AVBL

$$
FLZ066-069-070-075>078-162-262-165-265-211800-
SOUTHWEST FLORIDA AND KEYS
  
CITY           SKY/WX    TMP DP  RH WIND       PRES   REMARKS
PUNTA GORDA    FAIR      81  67  62 S8        30.15F                  
FT MYERS       PTSUNNY   82  67  60 SW7       30.12F                  
SOUTHWEST INTL PTSUNNY   83  69  62 S12       30.13F                  
NAPLES         PTSUNNY   84  69  60 S15       30.12F                  
MARCO ISLAND   FAIR     N/A N/A N/A SE15G22   30.13F                  
IMMOKALEE      PTSUNNY   84  68  58 S9G18     30.11F                  
MARATHON       FAIR      85  72  65 SE13      30.11F                  
KEY WEST NAS   FAIR      86  73  65 SE17      30.10F                  
KEY WEST INTL  FAIR      83  73  72 SE16      30.11F                  

STATION/POSITION SKY/WX   TEMP    WIND        PRES    WAVE   SWELL
                          AIR SEA DIR/SP/G            HT/PER HT/PER
                          (F)     (DEG/KT/KT) (MB)    (FT/S) (FT/S)
NAPLES                     80 74  140/  6/ 14 1020.2F
26.0N   85.6W              79 79  120/ 14/ 16 1018.3
DRY TORTUGAS               78     110/ 11/ 13 1018.9F
SAND KEY                   78                 1019.1F
SOMBRERO KEY               78                 1019.2F
LONG KEY                   79 78  130/ 16/ 18 1019.5F
MOLASSES REEF              78 78  150/ 17/ 19 1020.5F

$$
FLZ067-068-071>074-168-172>174-211800-
SOUTHEAST FLORIDA 
  
CITY           SKY/WX    TMP DP  RH WIND       PRES   REMARKS
W PALM BEACH   FAIR      82  68  62 SE20      30.16F                  
BOCA RATON     PTSUNNY   86  70  58 SE15      30.16                   
FT LAUDER-EXEC PTSUNNY   83  70  64 SE15      30.15F                  
FT LAUDERDALE  PTSUNNY   82  72  71 SE20G25   30.14F                  
POMPANO BEACH  FAIR      82  70  66 SE14G22   30.16S                  
PEMBROKE PINES PTSUNNY   82  67  60 SE17      30.16F                  
OPA LOCKA      PTSUNNY   84  68  58 S16       30.15F                  
MIAMI          PTSUNNY   81  72  74 SE12G22   30.15F                  
WEST KENDALL   PTSUNNY   84  70  62 SE12      30.14F                  
HOMESTEAD      PTSUNNY   82  71  67 SE15G21   30.13F                  

STATION/POSITION SKY/WX   TEMP    WIND        PRES    WAVE   SWELL
                          AIR SEA DIR/SP/G            HT/PER HT/PER
                          (F)     (DEG/KT/KT) (MB)    (FT/S) (FT/S)
PORT EVERGLADES            79     150/ 10/ 14 1021.2
VIRGINIA KEY               79 79  120/ 12/ 15 1020.5F
LAKE WORTH                 78 78  150/ 13/ 16 1022.6F
FOWEY ROCKS                77 78  130/ 17/ 18 1021.3F
SETTLEMENT POINT           79     160/ 11/ 13 1022.0F

$$